Showing default

TELEOS 1, 41169

Orbit data source: Space-Track

TELEOS 1, 41169 is a payload satellite owned by AgilSpace (SG) in LEO that was launched on Wed, 16 Dec 2015 UTC via a PSLV launch vehicle from the Sirharikota (SRI). Payloads include a variety of satellites, spacecraft, and rockets equipped with specific instruments for various scientific and technological missions. These include communications satellites like Starlink; space stations such as the ISS; scientific satellites like the Hubble; Earth observation satellites from companies like Planet Labs, Umbra, and HawkEye 360; GPS; miniature CubeSats for education and research; and military/defense satellites.

Not visible in the next 10 days
TELEOS 1 details
Identifier
41169, 2015-077D
Orbit
LEO
Last TLE update17 hours ago
Origin
Flag of SGAgilSpace (SG / SING)
ManufacturerSTE Sat Sys
MissionOperational Commercial Imaging
Bus & MotorSS-400, Unknown motor
Mass400 kg wet, 400 kg dry
Launch date (UTC)
2015-12-16 (9 years ago)
Launch vehicle
PSLV
Launch site
Sirharikota (SRI)
Object type
Payload
Rocket body
Debris
Shape & HBRHex Cyl + 4 Pan, 4 m
Radar Cross Section5.312 m², Large (>1 m²)

Expand to show TLE details & history

TLE from 17 hours ago
0 TELEOS 1
1 41169U 15077D   24325.57631733  .00050260  00000-0  10249-2 0  9993
2 41169  14.9786  66.0360 0003756 346.5046  13.5178 15.44266982494940
Epoch: 2024-11-20T13:49Z
Definitive object data (Epoch: 2024-11-20T13:49:53.817Z)
Latitude-0.00001°
Longitude158.49129°
Altitude428.258 km
Speed7.659 km/s
True Right ascension04h 24m 08s
True Declination0° 00' 00"
Sunlit
Object was in full shadow at TLE epoch
Visualization TLE readout
Latitude-13.49875°
Longitude89.97213°
Altitude432.009 km
Speed7.656 km/s
Apparent Right ascension20h 45m 53s
Apparent Declination-44° 38' 33"
Sunlit
Object is in full shadow
Visualization observer readout
Local Sidereal Time03:38:58
Azimuth237.916° WSW
Elevation-35.181°
Doppler factor1
Orbital elements
Apogee altitude441.919 km
Perigee altitude436.798 km
Semi-major axis6,817.495 km
Eccentricity0.0003756
Inclination14.9786°
RAAN66.036°
Arg. of periapsis346.5046°
True anomaly13.52787°
Mean anomaly13.5178°
Eccentric anomaly13.52283°
Mean motion3.85572 °/min
BSTAR0.0010249
Orbital period93.37 mins
Loading maneuver chart data...
Loading historical data...
Loading historical data...
Loading historical data...
Loading historical data...
Loading historical data...
Loading historical data...
Loading historical data...

TELEOS 1 Visibility forecast

Observer location: undefined°, undefined

TELEOS 1 is not visible in the next 10 days
Span
Click to sort rows by Start time (UTC) header in descending order
Start Az.
Max El. time (UTC)
Max El. Az.
Max El.
End time (UTC)
End Az.
|